Location: Unspecified
(0.0000°N, 0.0000°E)
Time: 09:49:36
(UTC+00:00)

Vanguard 2 - Pass Details

Date: 14 October 2022
Orbit: 553 x 2933 km, 32.9° (Epoch: 29 November)

Event Time Altitude Azimuth Distance (km) Brightness Sun altitude
Rises 20:32:16 0° 270° (W) 6,758 13.2 -41.0°
Reaches altitude 10° 20:38:11 10° 259° (W) 5,756 12.6 -42.5°
Maximum altitude 20:51:14 25° 211° (SSW) 4,248 11.4 -45.7°
Enters shadow 21:01:43 11° 161° (SSE) 4,649 11.4 -48.2°
